This is the latest recevied weather packets stored in our database for station/object KF6RAL-6. If no packets are shown the sender has not sent any weather packets the latest 10 day(s).
| Time | Temp. | Humidity | Pressure | Rain* | Wind** | Luminosity | Snow |
|---|---|---|---|---|---|---|---|
| 1788109872 | 21.67° C | 64% | 1015.9 hPa | 0 mm | - | - | - |
| 1788109451 | 21.67° C | 67% | 1016.6 hPa | 0 mm | - | - | - |
| 1788109031 | 21.67° C | 68% | 1016 hPa | 0 mm | - | - | - |
| 1788108609 | 21.11° C | 67% | 1016.4 hPa | 0 mm | - | - | - |
| 1788108188 | 21.11° C | 71% | 1016.2 hPa | 0 mm | - | - | - |
| 1788107767 | 21.11° C | 72% | 1016.2 hPa | 0 mm | - | - | - |
| 1788107346 | 20.56° C | 72% | 1016.1 hPa | 0 mm | - | - | - |
| 1788106925 | 20.56° C | 72% | 1016 hPa | 0 mm | - | - | - |
| 1788106504 | 20.56° C | 72% | 1016 hPa | 0 mm | - | - | - |
| 1788106083 | 20.56° C | 72% | 1016 hPa | 0 mm | - | - | - |
| 1788105662 | 20.56° C | 72% | 1016 hPa | 0 mm | - | - | - |
| 1788105241 | 20.56° C | 72% | 1015.3 hPa | 0 mm | - | - | - |
| 1788104820 | 20.56° C | 72% | 1016 hPa | 0 mm | - | - | - |
| 1788104412 | 20.56° C | 72% | 1016 hPa | 0 mm | - | - | - |
| 1788103978 | 20.56° C | 71% | 1015.2 hPa | 0 mm | - | - | - |
| 1788103557 | 21.11° C | 70% | 1015.8 hPa | 0 mm | - | - | - |
| 1788103136 | 21.11° C | 72% | 1015.7 hPa | 0 mm | - | - | - |
| 1788102715 | 20.56° C | 72% | 1015.7 hPa | 0 mm | - | - | - |
| 1788102299 | 20.56° C | 74% | 1015.6 hPa | 0 mm | - | - | - |
| 1788101873 | 20° C | 74% | 1015.2 hPa | 0 mm | - | - | - |
| 1788101452 | 20.56° C | 74% | 1014.9 hPa | 0 mm | - | - | - |
| 1788101031 | 20° C | 76% | 1014.9 hPa | 0 mm | - | - | - |
| 1788100611 | 20° C | 77% | 1015 hPa | 0 mm | - | - | - |
| 1788100198 | 19.44° C | 77% | 1015.1 hPa | 0 mm | - | - | - |
| 1788099768 | 18.89° C | 77% | 1015.5 hPa | 0 mm | - | - | - |
* Rain latest hour (hover to see other rain measurements)
** Current wind speed in m/s (hover to see current wind gust speed)